This is the latest recevied weather packets stored in our database for station/object OK0EK-11. If no packets are shown the sender has not sent any weather packets the latest 10 day(s).
| Time | Temp. | Humidity | Pressure | Rain* | Wind** | Luminosity | Snow |
|---|---|---|---|---|---|---|---|
| 1778014624 | 11.67° C | 64% | 1009.2 hPa | - | - | - | - |
| 1778014616 | 11.67° C | 64% | 1009.2 hPa | - | - | - | - |
| 1778014016 | 12.22° C | 63% | 1009.4 hPa | - | - | - | - |
| 1778013417 | 12.22° C | 62% | 1009.3 hPa | - | - | - | - |
| 1778012818 | 12.22° C | 61% | 1009.3 hPa | - | - | - | - |
| 1778012218 | 12.78° C | 61% | 1009.3 hPa | - | - | - | - |
| 1778011618 | 12.78° C | 59% | 1009.5 hPa | - | - | - | - |
| 1778011019 | 12.78° C | 59% | 1009.6 hPa | - | - | - | - |
| 1778010420 | 13.33° C | 58% | 1009.3 hPa | - | - | - | - |
| 1778009820 | 13.33° C | 58% | 1009.4 hPa | - | - | - | - |
| 1778009221 | 13.33° C | 57% | 1009.5 hPa | - | - | - | - |
| 1778008622 | 13.89° C | 57% | 1009.8 hPa | - | - | - | - |
| 1778008030 | 13.89° C | 56% | 1009.7 hPa | - | - | - | - |
| 1778008023 | 13.89° C | 56% | 1009.7 hPa | - | - | - | - |
| 1778007424 | 13.89° C | 58% | 1009.7 hPa | - | - | - | - |
| 1778006832 | 14.44° C | 57% | 1009.7 hPa | - | - | - | - |
| 1778006824 | 14.44° C | 57% | 1009.7 hPa | - | - | - | - |
| 1778006225 | 14.44° C | 57% | 1010 hPa | - | - | - | - |
| 1778005626 | 15° C | 56% | 1009.7 hPa | - | - | - | - |
| 1778005026 | 15° C | 56% | 1009.6 hPa | - | - | - | - |
| 1778004427 | 15.56° C | 55% | 1009.6 hPa | - | - | - | - |
| 1778003828 | 15.56° C | 53% | 1010.2 hPa | - | - | - | - |
| 1778003229 | 16.11° C | 53% | 1010 hPa | - | - | - | - |
| 1778002630 | 16.11° C | 52% | 1010.1 hPa | - | - | - | - |
| 1778002030 | 16.67° C | 52% | 1009.7 hPa | - | - | - | - |
* Rain since midnight (hover to see other rain measurements)
** Current wind speed in m/s (hover to see current wind gust speed)